TimeCST,TemperatureF,Dew PointF,Humidity,Sea Level PressureIn,VisibilityMPH,Wind Direction,Wind SpeedMPH,Gust SpeedMPH,PrecipitationIn,Events,Conditions,WindDirDegrees,DateUTC
12:15 AM,36.9,36.9,100,30.19,0.2,Calm,Calm,-,N/A,,Heavy Drizzle,0,2012-11-21 06:15:00
12:35 AM,36.7,36.7,100,30.18,0.2,Calm,Calm,-,N/A,Fog,Fog,0,2012-11-21 06:35:00
12:55 AM,36.7,36.7,100,30.18,0.2,Calm,Calm,-,N/A,,Drizzle,0,2012-11-21 06:55:00
1:15 AM,36.1,36.1,100,30.18,0.2,SSE,3.5,-,N/A,,Drizzle,150,2012-11-21 07:15:00
1:35 AM,35.6,35.6,100,30.19,0.2,Calm,Calm,-,N/A,Fog,Fog,0,2012-11-21 07:35:00
1:55 AM,35.6,35.6,100,30.19,0.2,Calm,Calm,-,N/A,Rain,Rain,0,2012-11-21 07:55:00
2:15 AM,35.8,35.8,100,30.19,0.2,WSW,3.5,-,N/A,Fog,Fog,240,2012-11-21 08:15:00
2:35 AM,35.8,35.8,100,30.19,0.2,SSW,3.5,-,N/A,Fog,Fog,210,2012-11-21 08:35:00
2:55 AM,36.0,36.0,100,30.19,0.2,Calm,Calm,-,N/A,Fog,Fog,0,2012-11-21 08:55:00
3:15 AM,36.0,36.0,100,30.20,0.2,WSW,3.5,-,N/A,Fog,Fog,250,2012-11-21 09:15:00
3:35 AM,34.9,34.9,100,30.19,0.2,Calm,Calm,-,N/A,Fog,Fog,0,2012-11-21 09:35:00
3:55 AM,34.0,34.0,100,30.20,0.2,WSW,4.6,-,N/A,Fog,Fog,250,2012-11-21 09:55:00
4:15 AM,33.4,33.4,100,30.21,0.2,WSW,4.6,-,N/A,Fog,Fog,240,2012-11-21 10:15:00
4:35 AM,33.1,33.1,100,30.20,0.2,SSW,4.6,-,N/A,Fog,Fog,200,2012-11-21 10:35:00
4:55 AM,32.0,32.0,100,30.19,0.2,SSW,4.6,-,N/A,Fog,Fog,200,2012-11-21 10:55:00
5:15 AM,31.8,31.8,100,30.20,0.2,WSW,3.5,-,N/A,Fog,Fog,240,2012-11-21 11:15:00
5:35 AM,32.2,32.2,100,30.20,0.2,WSW,3.5,-,N/A,Fog,Fog,240,2012-11-21 11:35:00
5:55 AM,33.6,33.6,100,30.21,0.2,WSW,5.8,-,N/A,,Drizzle,250,2012-11-21 11:55:00
6:15 AM,34.9,34.9,100,30.21,0.2,Calm,Calm,-,N/A,,Light Drizzle,0,2012-11-21 12:15:00
6:35 AM,35.6,35.6,100,30.23,0.2,WSW,4.6,-,N/A,,Drizzle,250,2012-11-21 12:35:00
6:55 AM,35.8,35.8,100,30.22,0.2,Calm,Calm,-,N/A,,Light Drizzle,0,2012-11-21 12:55:00
7:15 AM,36.0,36.0,100,30.23,0.2,Calm,Calm,-,N/A,Rain,Light Rain,0,2012-11-21 13:15:00
7:35 AM,36.7,36.7,100,30.23,0.2,Calm,Calm,-,N/A,,Drizzle,0,2012-11-21 13:35:00
7:55 AM,37.4,37.4,100,30.22,0.2,South,5.8,-,N/A,,Drizzle,180,2012-11-21 13:55:00
8:15 AM,37.4,37.4,100,30.22,0.2,SW,6.9,-,N/A,,Drizzle,220,2012-11-21 14:15:00
8:35 AM,37.8,37.8,100,30.23,0.2,SSW,6.9,-,N/A,,Light Drizzle,210,2012-11-21 14:35:00
8:55 AM,38.5,38.5,100,30.23,0.2,SW,5.8,-,N/A,Fog,Fog,220,2012-11-21 14:55:00
9:15 AM,39.2,39.2,100,30.23,0.2,SSW,6.9,-,N/A,Fog,Fog,210,2012-11-21 15:15:00
9:35 AM,39.7,39.7,100,30.22,0.2,South,6.9,-,N/A,Fog,Fog,180,2012-11-21 15:35:00
9:55 AM,40.3,40.3,100,30.23,0.2,SSW,5.8,-,N/A,Fog,Fog,210,2012-11-21 15:55:00
10:15 AM,41.2,41.0,99,30.23,0.2,SSW,8.1,-,N/A,Fog,Fog,200,2012-11-21 16:15:00
10:35 AM,42.4,42.3,99,30.22,0.2,SW,6.9,-,N/A,Fog,Fog,220,2012-11-21 16:35:00
10:55 AM,43.9,43.7,99,30.22,0.5,SW,6.9,-,N/A,Fog,Fog,220,2012-11-21 16:55:00
11:15 AM,46.2,46.0,99,30.21,1.8,SSW,9.2,-,N/A,,Overcast,210,2012-11-21 17:15:00
11:35 AM,47.5,47.5,100,30.20,5.0,SSW,9.2,-,N/A,,Scattered Clouds,200,2012-11-21 17:35:00
11:55 AM,50.0,49.8,99,30.18,7.0,SSW,9.2,-,N/A,,Clear,200,2012-11-21 17:55:00
12:15 PM,51.8,46.6,82,30.17,7.0,SSW,10.4,-,N/A,,Clear,210,2012-11-21 18:15:00
12:35 PM,53.6,46.4,77,30.17,7.0,SSW,11.5,-,N/A,,Clear,200,2012-11-21 18:35:00
12:55 PM,54.7,46.0,73,30.17,7.0,SSW,9.2,-,N/A,,Clear,200,2012-11-21 18:55:00
1:15 PM,55.6,46.0,70,30.15,10.0,South,11.5,-,N/A,,Clear,190,2012-11-21 19:15:00
2:15 PM,55.4,44.4,67,30.13,10.0,South,11.5,-,N/A,,Clear,190,2012-11-21 20:15:00
2:35 PM,55.4,43.9,65,30.13,7.0,South,12.7,-,N/A,,Clear,180,2012-11-21 20:35:00
2:55 PM,55.4,43.7,65,30.12,7.0,South,13.8,-,N/A,,Clear,190,2012-11-21 20:55:00
3:15 PM,55.4,43.5,64,30.12,10.0,South,12.7,-,N/A,,Clear,190,2012-11-21 21:15:00
3:35 PM,54.5,43.2,66,30.12,10.0,South,13.8,-,N/A,,Clear,190,2012-11-21 21:35:00
3:55 PM,53.6,42.3,65,30.12,10.0,South,11.5,-,N/A,,Clear,190,2012-11-21 21:55:00
4:15 PM,51.3,42.1,71,30.12,10.0,South,9.2,-,N/A,,Clear,180,2012-11-21 22:15:00
4:35 PM,48.6,41.5,77,30.11,7.0,South,6.9,-,N/A,,Clear,170,2012-11-21 22:35:00
4:55 PM,45.1,40.6,84,30.11,7.0,South,6.9,-,N/A,,Clear,170,2012-11-21 22:55:00
5:15 PM,45.5,41.4,85,30.10,7.0,SSE,9.2,-,N/A,,Clear,160,2012-11-21 23:15:00
5:35 PM,43.7,40.1,87,30.10,7.0,South,10.4,-,N/A,,Clear,170,2012-11-21 23:35:00
5:55 PM,41.5,38.7,89,30.11,7.0,South,9.2,-,N/A,,Clear,170,2012-11-21 23:55:00
6:15 PM,41.4,38.8,91,30.11,5.0,South,9.2,-,N/A,,Clear,170,2012-11-22 00:15:00
6:35 PM,41.4,39.2,92,30.11,5.0,South,9.2,-,N/A,,Clear,170,2012-11-22 00:35:00
6:55 PM,40.8,39.0,93,30.11,4.0,South,8.1,-,N/A,,Clear,170,2012-11-22 00:55:00
7:15 PM,40.3,39.2,96,30.11,4.0,South,8.1,-,N/A,,Clear,170,2012-11-22 01:15:00
7:35 PM,40.3,39.2,96,30.11,4.0,South,9.2,-,N/A,,Clear,170,2012-11-22 01:35:00
7:55 PM,39.7,38.3,95,30.10,4.0,South,9.2,-,N/A,,Clear,170,2012-11-22 01:55:00
8:15 PM,41.4,39.9,95,30.10,5.0,South,10.4,-,N/A,,Clear,170,2012-11-22 02:15:00
8:35 PM,40.6,39.0,94,30.10,4.0,South,6.9,-,N/A,,Clear,170,2012-11-22 02:35:00
8:55 PM,39.0,38.1,97,30.10,4.0,South,6.9,-,N/A,,Clear,180,2012-11-22 02:55:00
9:15 PM,41.7,41.0,97,30.09,4.0,South,9.2,-,N/A,,Clear,180,2012-11-22 03:15:00
9:35 PM,43.2,41.4,93,30.09,5.0,South,9.2,-,N/A,,Clear,180,2012-11-22 03:35:00
9:55 PM,44.1,42.4,94,30.09,5.0,South,11.5,-,N/A,,Clear,180,2012-11-22 03:55:00
10:15 PM,46.0,43.7,92,30.08,5.0,South,15.0,-,N/A,,Clear,190,2012-11-22 04:15:00
10:35 PM,45.9,44.1,93,30.08,4.0,South,13.8,-,N/A,,Clear,190,2012-11-22 04:35:00
10:55 PM,45.9,44.6,95,30.07,3.0,South,17.3,-,N/A,,Clear,190,2012-11-22 04:55:00
11:15 PM,45.9,44.6,95,30.07,2.5,South,17.3,-,N/A,,Clear,190,2012-11-22 05:15:00
11:35 PM,45.1,43.9,95,30.07,2.5,South,11.5,-,N/A,,Clear,190,2012-11-22 05:35:00
11:55 PM,44.6,43.3,95,30.07,2.0,South,11.5,-,N/A,,Clear,190,2012-11-22 05:55:00